date,time,DOY,Ta_1_1_1,RH_1_1_1,LWin_1_1_1,LWout_1_1_1,SWin_1_1_1,SWout_1_1_1,PPFD_1_1_1,SWC_1_1_1,Ts_1_1_1
[yyyy-mm-dd],[HH:MM],[ddd.ddd],[K],[%],[W+1m-2],[W+1m-2],[W+1m-2],[W+1m-2],[µmol+1m-2s-1],[m+3m-3],[K]
2013-01-20,00:30,20.020,257.08966666666669,77.769333333333321,-3.9086666666666665,-9999.0,0.14699999999999999,-1.1519999999999999,1.16666666666666672E-002,-9999.0,279.90999999999991
2013-01-20,01:00,20.041,257.44833333333332,77.408333333333331,-3.8586666666666662,-9999.0,0.11766666666666666,-1.1066666666666665,9.00000000000000105E-003,-9999.0,279.90999999999991
2013-01-20,01:30,20.062,257.48566666666670,77.545333333333332,-3.5960000000000010,-9999.0,4.66666666666666792E-003,-0.92999999999999983,1.06666666666666680E-002,-9999.0,279.90999999999991
2013-01-20,02:00,20.083,257.41833333333329,76.453333333333347,-3.8836666666666662,-9999.0,-9.00000000000000105E-003,-1.1163333333333334,9.33333333333333411E-003,-9999.0,279.90999999999991
2013-01-20,02:30,20.104,257.07466666666664,75.878333333333330,-5.1096666666666675,-9999.0,0.14500000000000002,-2.1240000000000001,7.33333333333333320E-003,-9999.0,279.90999999999991
2013-01-20,03:00,20.124,256.87166666666667,74.580999999999989,-3.6579999999999995,-9999.0,-1.43333333333333247E-002,-0.87633333333333308,1.70000000000000047E-002,-9999.0,279.90999999999991
2013-01-20,03:30,20.145,256.73666666666668,74.773999999999987,-4.2403333333333348,-9999.0,1.33333333333333307E-002,-1.4143333333333332,1.00000000000000019E-002,-9999.0,279.90999999999991
2013-01-20,04:00,20.166,256.42166666666668,76.705666666666673,-4.9326666666666679,-9999.0,0.12133333333333332,-1.9613333333333332,4.66666666666666619E-003,-9999.0,279.90999999999991
2013-01-20,04:30,20.187,256.14700000000005,76.196333333333328,-5.4436666666666680,-9999.0,0.26266666666666666,-2.3053333333333330,1.06666666666666680E-002,-9999.0,279.90999999999991
2013-01-20,05:00,20.208,255.80000000000007,75.758666666666670,-5.9670000000000005,-9999.0,0.30933333333333329,-2.6476666666666668,-1.66666666666666742E-003,-9999.0,279.90999999999991
2013-01-20,05:30,20.229,255.54666666666671,76.175666666666686,-4.9123333333333337,-9999.0,0.20466666666666675,-1.6266666666666665,6.33333333333333491E-003,-9999.0,279.90999999999991
2013-01-20,06:00,20.249,255.50899999999996,76.665333333333351,-3.9996666666666658,-9999.0,-4.46666666666666740E-002,-1.3043333333333333,9.00000000000000105E-003,-9999.0,279.90999999999991
2013-01-20,06:30,20.270,255.15933333333334,75.905666666666676,-5.7366666666666664,-9999.0,0.25600000000000001,-2.5326666666666662,9.33333333333333237E-003,-9999.0,279.90999999999991
2013-01-20,07:00,20.291,255.09600000000000,75.238000000000000,-5.6830000000000016,-9999.0,0.33833333333333343,-2.1733333333333338,2.29999999999999996E-002,-9999.0,279.90999999999991
2013-01-20,07:30,20.312,254.72633333333337,74.787666666666652,-3.7066666666666666,-9999.0,5.50000000000000003E-002,-0.33966666666666662,1.3430000000000000,-9999.0,279.90999999999991
2013-01-20,08:00,20.333,253.71800000000005,73.186999999999983,-4.3289999999999988,-9999.0,2.2530000000000001,8.7506666666666675,22.992333333333331,-9999.0,279.90999999999991
2013-01-20,08:30,20.354,253.29533333333342,72.745999999999967,-5.2773333333333330,-9999.0,13.982999999999999,62.238666666666653,104.53300000000000,-9999.0,279.90999999999991
2013-01-20,09:00,20.374,253.46766666666670,71.543333333333322,-4.3396666666666652,-9999.0,31.973333333333322,149.98500000000001,243.98666666666659,-9999.0,279.90999999999991
2013-01-20,09:30,20.395,253.94600000000000,70.054333333333318,-5.3879999999999990,-9999.0,39.592666666666673,209.87900000000002,355.64566666666667,-9999.0,279.90999999999991
2013-01-20,10:00,20.416,254.62600000000003,68.718000000000004,-5.4336666666666664,-9999.0,50.868333333333332,276.74399999999997,478.85966666666656,-9999.0,279.90999999999991
2013-01-20,10:30,20.437,255.32733333333337,67.722333333333324,-4.1223333333333327,-9999.0,62.945999999999991,327.86433333333332,580.04500000000007,-9999.0,279.90999999999991
2013-01-20,11:00,20.458,255.98066666666671,67.643000000000001,-4.2643333333333340,-9999.0,58.402333333333338,306.26466666666664,559.87366666666662,-9999.0,279.90999999999991
2013-01-20,11:30,20.479,256.40399999999994,65.717333333333329,-3.5949999999999998,-9999.0,58.481333333333332,295.81100000000004,550.66066666666666,-9999.0,279.90999999999991
2013-01-20,12:00,20.499,256.65166666666670,65.345333333333343,-3.1659999999999999,-9999.0,56.062333333333321,278.01266666666669,530.36933333333332,-9999.0,279.90999999999991
2013-01-20,12:30,20.520,256.87466666666671,63.497666666666660,-3.5623333333333331,-9999.0,67.227666666666678,342.90466666666663,639.08666666666670,-9999.0,279.90999999999991
2013-01-20,13:00,20.541,256.85266666666666,62.196999999999989,-2.5336666666666670,-9999.0,62.527333333333338,300.99266666666671,567.72833333333335,-9999.0,279.90999999999991
2013-01-20,13:30,20.562,256.85733333333337,60.710666666666654,-3.4806666666666657,-9999.0,43.952999999999996,209.43233333333339,406.36566666666664,-9999.0,279.90999999999991
2013-01-20,14:00,20.583,256.71700000000004,60.988333333333337,-2.9573333333333336,-9999.0,45.034666666666666,215.65833333333336,409.85133333333323,-9999.0,279.90999999999991
2013-01-20,14:30,20.604,256.68066666666670,60.342666666666659,-3.1136666666666666,-9999.0,37.913333333333334,181.03666666666669,344.45900000000000,-9999.0,279.90999999999991
2013-01-20,15:00,20.624,256.58233333333334,59.083333333333321,-4.0950000000000006,-9999.0,34.333666666666666,174.51699999999994,323.92033333333336,-9999.0,279.90999999999991
2013-01-20,15:30,20.645,256.18266666666671,62.519000000000005,-5.1710000000000012,-9999.0,18.241666666666671,91.872333333333373,187.01766666666666,-9999.0,279.90999999999991
2013-01-20,16:00,20.666,255.94233333333332,65.143666666666675,-5.4449999999999994,-9999.0,13.994000000000000,66.936000000000007,129.71600000000004,-9999.0,279.90999999999991
2013-01-20,16:30,20.687,255.56466666666671,62.766666666666673,-6.9003333333333341,-9999.0,7.1763333333333339,31.345333333333329,64.665666666666667,-9999.0,279.90999999999991
2013-01-20,17:00,20.708,255.12899999999996,63.341666666666661,-7.9466666666666681,-9999.0,1.5876666666666666,2.6606666666666658,13.920666666666669,-9999.0,279.90999999999991
2013-01-20,17:30,20.729,254.49200000000005,65.571333333333342,-8.0260000000000016,-9999.0,0.49866666666666676,-3.3350000000000000,0.40399999999999986,-9999.0,279.90999999999991
2013-01-20,18:00,20.749,253.87933333333334,68.227999999999994,-8.3803333333333345,-9999.0,0.45966666666666678,-3.6869999999999994,5.66666666666666707E-003,-9999.0,279.90999999999991
2013-01-20,18:30,20.770,253.45533333333336,69.635333333333335,-8.2383333333333333,-9999.0,0.53433333333333333,-3.4703333333333322,9.00000000000000105E-003,-9999.0,279.90999999999991
2013-01-20,19:00,20.791,253.11233333333331,70.991666666666660,-8.1793333333333340,-9999.0,0.44066666666666660,-3.2670000000000008,8.33333333333333322E-003,-9999.0,279.90999999999991
2013-01-20,19:30,20.812,252.74833333333342,71.743000000000009,-8.0846666666666671,-9999.0,0.42466666666666669,-3.2186666666666666,8.00000000000000017E-003,-9999.0,279.90999999999991
2013-01-20,20:00,20.833,252.40333333333336,71.559333333333342,-7.6846666666666632,-9999.0,0.40166666666666667,-3.1100000000000003,0.0000000000000000,-9999.0,279.90999999999991
2013-01-20,20:30,20.854,252.11766666666668,72.116666666666660,-7.4010000000000007,-9999.0,0.29399999999999993,-2.6219999999999994,8.66666666666666627E-003,-9999.0,279.90999999999991
2013-01-20,21:00,20.874,251.96133333333336,73.309333333333342,-7.3709999999999996,-9999.0,0.31333333333333330,-2.7296666666666671,3.00000000000000006E-003,-9999.0,279.90999999999991
2013-01-20,21:30,20.895,251.79166666666666,74.458666666666645,-6.7029999999999994,-9999.0,0.27666666666666667,-2.3553333333333337,-2.66666666666666701E-003,-9999.0,279.90999999999991
2013-01-20,22:00,20.916,251.68299999999996,75.181000000000012,-5.7290000000000010,-9999.0,0.21966666666666673,-2.2243333333333335,8.66666666666666627E-003,-9999.0,279.90999999999991
2013-01-20,22:30,20.937,251.52633333333341,74.989999999999995,-5.4143333333333326,-9999.0,0.23366666666666672,-2.1956666666666673,7.66666666666666712E-003,-9999.0,279.90999999999991
2013-01-20,23:00,20.958,251.50833333333338,73.408000000000001,-5.0996666666666659,-9999.0,0.24933333333333330,-2.1206666666666663,2.33333333333333353E-003,-9999.0,279.90999999999991
2013-01-20,23:30,20.979,251.54200000000006,72.028999999999996,-4.8476666666666670,-9999.0,0.21833333333333335,-1.9053333333333327,6.66666666666667078E-004,-9999.0,279.90999999999991
2013-01-21,00:00,21.000,251.66166666666669,71.719666666666669,-4.0473333333333334,-9999.0,6.50000000000000161E-002,-1.4089999999999998,3.00000000000000050E-003,-9999.0,279.90999999999991
